[[{"header":{"parameterUnit":"m.s-1","parameterCategory":1,"la1":30.2991,"la2":30.254,"lo1":-89.0895,"lo2":-89.0444,"dy":0.0017,"dx":0.0017,"nx":28,"ny":28,"refTime":"2024-10-03T03:00:00:Z","depth":0,"parameterNumber":2,"parameterNumberName":"U-component_of_WINDS"},"data":[0,0,0,0,0,0,0,0,0,0,0,0,0,0,0,0,0,0,0,0,0,0,0,0,0,0,0,0,0,0,0,0,0,0,0,0,0,0,0,0,0,0,0,0,0,0,0,0,0,0,0,0,0,0,0,0,0,0,1.0898,1.0899,0,1.0923,1.0923,1.0924,1.0957,1.0957,1.0958,1.0958,1.0981,1.0981,1.0981,0,0,0,0,0,0,0,0,0,0,0,0,0,1.0875,1.0876,1.0898,1.0899,1.0899,1.0923,1.0923,1.0924,1.0956,1.0957,1.0958,1.0958,1.0981,1.0981,1.0981,0,0,0,0,0,0,0,0,0,0,0,0,0,1.0891,1.0876,1.0898,1.0918,1.092,1.0923,1.0923,1.0924,1.0956,1.0957,1.0958,1.0959,1.0981,1.0981,1.0981,1.0966,0,0,1.0982,1.0982,0,0,0,0,0,0,0,0,1.089,1.0892,1.0915,1.0917,1.0919,1.0938,1.0924,1.0938,1.0956,1.0943,1.0958,1.0959,1.0966,1.0967,1.097,1.0967,1.0968,1.0982,1.0982,1.0982,1.0982,0,0,0,0,0,0,0,1.0889,1.0891,1.0908,1.0915,1.0918,1.0925,1.0928,1.0926,1.0949,1.0944,1.0946,1.0949,1.0967,1.097,1.0971,1.0968,1.0982,1.0982,1.0982,1.0982,1.095,1.0949,0,0,0,0,0,0,1.0885,1.089,1.0907,1.0909,1.0906,1.0924,1.0928,1.0931,1.0949,1.0953,1.0948,1.095,1.0969,1.0971,1.0972,1.0952,1.0982,1.0982,1.0982,1.095,1.0949,1.0948,0,0,0,0,0,0,1.0885,1.0887,1.0906,1.09,1.0903,1.0924,1.0927,1.0931,1.0934,1.0953,1.0956,1.0947,1.097,1.0972,1.0966,1.0953,1.0982,1.0982,1.0952,1.095,1.0949,1.0914,0,0,0,0,0,0,1.0884,1.0886,1.0882,1.09,1.0903,1.0902,1.0926,1.0931,1.0934,1.0937,1.0953,1.0956,1.0971,1.0966,1.0966,1.0954,1.0982,1.0953,1.0951,1.0949,1.0916,1.0912,1.0908,0,0,0,0,0,1.0883,1.0871,1.0881,1.0883,1.0898,1.0901,1.0903,1.0921,1.0933,1.0927,1.0939,1.0955,1.0955,1.0965,1.0966,1.0954,1.0954,1.0951,1.0949,1.0918,1.0913,1.0908,0,0,0,0,0,0,1.0851,1.0874,1.0885,1.0879,1.0888,1.0906,1.09,1.0914,1.0919,1.0922,1.0943,1.0946,1.0937,1.0945,1.0956,1.0938,1.0957,1.0954,1.0933,1.0927,1.0923,1.092,1.0983,0,0,0,0,0,1.0843,1.0845,1.0864,1.0857,1.0861,1.0879,1.0881,1.0894,1.0904,1.0907,1.0919,1.0926,1.0928,1.0928,1.0931,1.0918,1.092,1.091,1.0905,1.0902,1.0899,1.0889,1.0884,1.0941,1.0941,1.0941,0,0,1.0827,1.084,1.084,1.0851,1.0859,1.0858,1.0882,1.0881,1.088,1.0907,1.0902,1.0911,1.092,1.091,1.0907,1.0917,1.0884,1.0899,1.0896,1.0895,1.0887,1.0881,1.0876,1.094,1.094,1.094,0,0,1.0797,1.0808,1.0801,1.0809,1.0821,1.0833,1.0831,1.0847,1.0854,1.0849,1.0868,1.0867,1.087,1.0875,1.0878,1.0847,1.0861,1.0847,1.0823,1.0814,1.0809,1.0805,1.0791,1.0786,1.0845,1.0845,1.0845,0,1.0775,1.0776,1.0796,1.0793,1.0796,1.082,1.0812,1.0818,1.083,1.0831,1.0842,1.0844,1.0853,1.0843,1.0835,1.0837,1.0834,1.0845,1.0808,1.0805,1.0801,1.0788,1.0783,1.0843,1.0843,1.0843,1.0843,0,1.0747,1.0747,1.074,1.075,1.0753,1.0747,1.0765,1.0765,1.0777,1.0787,1.0781,1.0792,1.0795,1.0794,1.0807,1.0785,1.079,1.0805,1.0824,1.0793,1.0781,1.0777,1.084,1.0841,1.0841,1.0842,0,0,1.0698,1.0718,1.0715,1.0719,1.0732,1.0732,1.0726,1.073,1.0728,1.0735,1.0729,1.073,1.0742,1.0745,1.0758,1.075,1.0721,1.0765,1.0766,1.0754,1.0694,1.0682,1.0676,1.0731,1.073,1.0729,1.0692,0,1.0669,1.0661,1.0678,1.0665,1.0664,1.0686,1.068,1.0687,1.0696,1.0695,1.0705,1.0703,1.0722,1.0723,1.0716,1.0726,1.0709,1.0729,1.0723,1.0723,1.0718,1.067,1.0657,1.0622,1.0688,1.0688,1.0687,0,1.0634,1.0638,1.0625,1.0637,1.0637,1.0632,1.0635,1.0634,1.0641,1.0648,1.0651,1.0665,1.0658,1.0678,1.0667,1.068,1.0679,1.0683,1.0682,1.068,1.0702,1.0665,1.0612,1.0605,1.068,1.0681,1.0681,0,1.0596,1.0598,1.059,1.0593,1.0607,1.0603,1.0608,1.0616,1.0616,1.0619,1.0618,1.062,1.062,1.0621,1.0634,1.0648,1.0621,1.0642,1.0624,1.0623,1.0616,1.0616,1.0559,1.0619,1.0619,1.0619,1.0619,0,1.056,1.0551,1.0573,1.0568,1.0557,1.0575,1.0564,1.0571,1.0578,1.0573,1.0592,1.0587,1.0606,1.0602,1.0613,1.0601,1.0601,1.0605,1.0608,1.0602,1.0601,1.06,1.0602,1.0618,1.0618,1.0618,1.0618,0,1.0516,1.0531,1.0523,1.0536,1.0539,1.053,1.0541,1.0535,1.0545,1.0538,1.0538,1.0553,1.0549,1.0563,1.0562,1.0569,1.0549,1.0557,1.0547,1.0548,1.0528,1.0529,1.0467,1.0458,1.0526,1.0525,1.0525,0,1.0491,1.0484,1.0496,1.0494,1.0499,1.0496,1.0496,1.0513,1.0512,1.0517,1.051,1.0508,1.0507,1.05,1.0509,1.0508,1.0514,1.0492,1.0514,1.0507,1.051,1.0509,1.0507,1.0487,1.0486,1.0486,1.0485,0,1.0445,1.0452,1.0451,1.0452,1.0451,1.0453,1.0456,1.0453,1.0471,1.0468,1.0464,1.0463,1.0461,1.0457,1.0457,1.0461,1.0475,1.0479,1.0474,1.0467,1.046,1.046,1.0532,1.048,1.048,1.0481,1.0481,1.0481,1.0408,1.0401,1.0408,1.0406,1.0409,1.0411,1.0405,1.0414,1.0411,1.0411,1.0421,1.0414,1.0418,1.0419,1.0422,1.0415,1.0425,1.0419,1.0417,1.0414,1.0409,1.0462,1.0416,1.0416,1.0416,1.0416,1.0416,0,1.036,1.0365,1.0363,1.0365,1.0363,1.0377,1.038,1.0376,1.037,1.0373,1.0371,1.0365,1.0361,1.0369,1.0366,1.0359,1.0365,1.0357,1.0357,1.0357,1.0403,1.0406,1.0352,1.0352,1.0352,1.0352,1.0352,1.0352,1.0335,1.0324,1.0331,1.032,1.0325,1.0319,1.0319,1.0319,1.0321,1.0313,1.031,1.0316,1.032,1.0317,1.0313,1.0315,1.0312,1.0301,1.0305,1.0348,1.0354,1.036,1.0363,1.0301,1.0301,1.026,1.0259,1.0259]},{"header":{"parameterUnit":"m.s-1","parameterCategory":1,"la1":30.2991,"la2":30.254,"lo1":-89.0895,"lo2":-89.0444,"dy":0.0017,"dx":0.0017,"nx":28,"ny":28,"refTime":"2024-10-03T03:00:00:Z","depth":0,"parameterNumber":3,"parameterNumberName":"V-component_of_WINDS"},"data":[0,0,0,0,0,0,0,0,0,0,0,0,0,0,0,0,0,0,0,0,0,0,0,0,0,0,0,0,0,0,0,0,0,0,0,0,0,0,0,0,0,0,0,0,0,0,0,0,0,0,0,0,0,0,0,0,0,0,2.6416,2.6416,0,2.6361,2.6361,2.636,2.6327,2.6327,2.6326,2.6326,2.6268,2.6266,2.6265,0,0,0,0,0,0,0,0,0,0,0,0,0,2.649,2.6489,2.6416,2.6416,2.6415,2.6361,2.636,2.636,2.6327,2.6327,2.6326,2.6326,2.6268,2.6267,2.6265,0,0,0,0,0,0,0,0,0,0,0,0,0,2.6449,2.6488,2.6416,2.6392,2.6389,2.6361,2.636,2.636,2.6327,2.6327,2.6326,2.6326,2.6269,2.6267,2.6265,2.6256,0,0,2.6258,2.6257,0,0,0,0,0,0,0,0,2.6451,2.6446,2.6396,2.6394,2.6391,2.6351,2.6365,2.6325,2.6327,2.635,2.6326,2.6326,2.6295,2.6291,2.6281,2.6253,2.6251,2.6258,2.6257,2.6256,2.6255,0,0,0,0,0,0,0,2.6454,2.6448,2.6394,2.6396,2.6392,2.6383,2.6377,2.6357,2.6325,2.6348,2.6346,2.634,2.6294,2.6283,2.628,2.625,2.6258,2.6256,2.6255,2.6254,2.621,2.621,0,0,0,0,0,0,2.6461,2.6451,2.6396,2.6393,2.6421,2.6382,2.6375,2.6364,2.6325,2.6319,2.634,2.6339,2.6287,2.6282,2.6277,2.6263,2.6256,2.6254,2.6253,2.621,2.621,2.621,0,0,0,0,0,0,2.6463,2.6456,2.6398,2.6421,2.6413,2.6381,2.6368,2.6363,2.6352,2.6319,2.6313,2.6336,2.6287,2.628,2.6261,2.6261,2.6253,2.6251,2.621,2.621,2.621,2.6236,0,0,0,0,0,0,2.6465,2.6457,2.6455,2.6421,2.6412,2.6384,2.6368,2.6362,2.6349,2.6346,2.6313,2.6307,2.6286,2.6265,2.6259,2.6258,2.6249,2.6209,2.621,2.621,2.6235,2.6237,2.6239,0,0,0,0,0,2.6468,2.6464,2.6455,2.6448,2.6408,2.6384,2.6379,2.6355,2.6349,2.6345,2.6323,2.6308,2.6262,2.6263,2.6256,2.6255,2.6209,2.621,2.621,2.6234,2.6237,2.6239,0,0,0,0,0,0,2.6498,2.6459,2.6448,2.6434,2.6413,2.6379,2.6374,2.6359,2.6339,2.6337,2.6308,2.63,2.6284,2.6267,2.6269,2.6243,2.6234,2.6233,2.6255,2.6257,2.6258,2.6262,2.6247,0,0,0,0,0,2.6503,2.6488,2.6455,2.6445,2.6435,2.6406,2.6395,2.6379,2.6355,2.6346,2.6323,2.63,2.628,2.6267,2.6247,2.6233,2.6224,2.6228,2.623,2.6231,2.6231,2.622,2.6221,2.6211,2.6211,2.6211,0,0,2.6513,2.649,2.6483,2.6451,2.6432,2.6416,2.6399,2.6383,2.637,2.6343,2.6324,2.6306,2.6278,2.6261,2.6252,2.6246,2.6231,2.6232,2.6233,2.6231,2.622,2.6221,2.6222,2.6211,2.6211,2.6211,0,0,2.6524,2.6505,2.6495,2.6476,2.6449,2.6429,2.6427,2.6395,2.6382,2.6362,2.634,2.6324,2.6291,2.6272,2.6257,2.6259,2.6243,2.6253,2.6262,2.6252,2.6253,2.6253,2.6252,2.6253,2.6252,2.6252,2.6252,0,2.654,2.6515,2.6491,2.6476,2.6462,2.6437,2.6425,2.6408,2.6375,2.6365,2.6359,2.6316,2.6296,2.6273,2.6273,2.6262,2.6257,2.6256,2.6255,2.6255,2.6255,2.6254,2.6254,2.6254,2.6253,2.6253,2.6253,0,2.6536,2.6519,2.6514,2.6482,2.6468,2.6454,2.6427,2.6414,2.6399,2.638,2.6358,2.6333,2.6306,2.63,2.6285,2.6274,2.6271,2.6261,2.6251,2.6258,2.6256,2.6256,2.6255,2.6255,2.6255,2.6254,0,0,2.6564,2.6519,2.6517,2.6502,2.6469,2.6455,2.6439,2.6414,2.6403,2.6381,2.6366,2.6338,2.6328,2.6312,2.6294,2.6285,2.6285,2.6275,2.6274,2.6277,2.627,2.6278,2.6278,2.6275,2.6275,2.6275,2.6272,0,2.6568,2.6541,2.6517,2.6498,2.6481,2.6456,2.6442,2.642,2.6401,2.6383,2.6362,2.6342,2.6331,2.632,2.6311,2.6288,2.6283,2.6287,2.626,2.6259,2.6267,2.6277,2.6285,2.6284,2.6271,2.6271,2.6271,0,2.657,2.6549,2.6527,2.6495,2.6487,2.6475,2.6449,2.6433,2.6406,2.6393,2.6374,2.6355,2.6336,2.6328,2.6301,2.6304,2.6291,2.6278,2.6277,2.6273,2.6265,2.6272,2.6283,2.6283,2.627,2.627,2.627,0,2.6591,2.6557,2.6539,2.6527,2.6489,2.6481,2.6465,2.6438,2.6423,2.64,2.639,2.6365,2.6351,2.6331,2.6306,2.6302,2.628,2.627,2.6267,2.6268,2.6264,2.6264,2.6272,2.6257,2.6257,2.6257,2.6257,0,2.6598,2.6585,2.6548,2.6537,2.6522,2.6495,2.648,2.6461,2.6438,2.6422,2.6398,2.6384,2.6351,2.6332,2.6311,2.6291,2.6285,2.6272,2.6267,2.6274,2.6276,2.6265,2.6264,2.6257,2.6257,2.6257,2.6257,0,2.6619,2.6593,2.6572,2.6538,2.6529,2.6519,2.6488,2.6476,2.6456,2.6436,2.6429,2.6397,2.6373,2.6346,2.6313,2.6299,2.6279,2.6272,2.6289,2.6285,2.6284,2.6284,2.6284,2.6282,2.6269,2.627,2.627,0,2.6624,2.6614,2.6578,2.6566,2.655,2.6531,2.6517,2.6489,2.6474,2.6442,2.6433,2.6408,2.6386,2.6348,2.6321,2.6295,2.6286,2.6288,2.6282,2.6289,2.6285,2.6286,2.6284,2.629,2.629,2.629,2.6291,0,2.6636,2.6624,2.6604,2.6579,2.6563,2.6542,2.6519,2.6511,2.6478,2.6463,2.6438,2.6421,2.6387,2.6361,2.6332,2.6313,2.6296,2.6293,2.629,2.6297,2.6307,2.6301,2.6292,2.6293,2.6293,2.6292,2.6292,2.6292,2.6649,2.6638,2.6611,2.6589,2.657,2.6549,2.6536,2.6514,2.6493,2.6464,2.6448,2.6424,2.6396,2.6354,2.6336,2.6316,2.631,2.6307,2.6306,2.6305,2.6307,2.6311,2.631,2.631,2.631,2.631,2.631,0,2.6659,2.664,2.662,2.659,2.6572,2.6559,2.6533,2.6519,2.6498,2.6473,2.6452,2.6423,2.6398,2.6369,2.6341,2.633,2.6321,2.6323,2.6324,2.6319,2.6314,2.6319,2.6331,2.6331,2.6331,2.6331,2.6331,2.6331,2.6662,2.6643,2.6627,2.6597,2.6578,2.6555,2.6541,2.6522,2.6502,2.6471,2.645,2.6431,2.6404,2.6374,2.635,2.6342,2.6332,2.6337,2.6326,2.6322,2.632,2.6318,2.6322,2.6335,2.6335,2.6333,2.6333,2.6333]}]]